GW4718 Weather Reports


time (UTC)temp
F
wind
direction
speed
knots
gust
knots
rain 1hr
in
rain 24hr
in
rain mn
in
humidity
%
barometer
mb
20260502235300 47 238 0.0 1.7 0.00 0.00 0.00 48 1015.9
20260502234756 47 234 0.9 0.9 0.00 0.00 0.00 46 1015.7
20260502234253 47 111 4.3 5.2 0.00 0.00 0.00 49 1015.6
20260502233749 47 191 3.5 5.2 0.00 0.00 0.00 48 1015.6
20260502233246 47 114 0.9 2.6 0.00 0.00 0.00 47 1015.8
20260502232742 47 135 0.9 1.7 0.00 0.00 0.00 45 1015.6
20260502232239 47 205 1.7 3.5 0.00 0.00 0.00 45 1015.8
20260502231736 47 201 2.6 3.5 0.00 0.00 0.00 47 1015.7
20260502231234 47 222 5.2 6.1 0.00 0.00 0.00 46 1015.7
20260502230732 47 198 6.1 8.7 0.00 0.00 0.00 45 1015.5
20260502230230 48 284 4.3 6.1 0.00 0.00 0.00 42 1015.6
20260502225726 48 137 0.9 6.1 0.00 0.00 0.00 41 1015.5
20260502225218 48 232 0.0 1.7 0.00 0.00 0.00 43 1015.5
20260502224714 48 155 0.9 1.7 0.00 0.00 0.00 43 1015.3
20260502224211 48 220 0.0 1.7 0.00 0.00 0.00 42 1015.5
20260502223709 48 181 2.6 7.0 0.00 0.00 0.00 45 1015.5
20260502223207 48 34 0.0 3.5 0.00 0.00 0.00 42 1015.5
20260502222704 48 65 0.9 2.6 0.00 0.00 0.00 48 1015.4
20260502222201 48 247 4.3 6.1 0.00 0.00 0.00 43 1015.3
20260502221656 48 235 3.5 5.2 0.00 0.00 0.00 44 1015.3
20260502221153 48 110 0.9 7.8 0.00 0.00 0.00 42 1015.2
20260502220649 48 265 1.7 7.8 0.00 0.00 0.00 44 1015.3
20260502220146 49 158 3.5 6.1 0.00 0.00 0.00 44 1015.2
20260502215643 49 175 0.0 0.0 0.00 0.00 0.00 43 1015.3
20260502215139 49 171 3.5 5.2 0.00 0.00 0.00 42 1015.1
20260502214636 49 189 0.9 1.7 0.00 0.00 0.00 42 1015.2
20260502214128 49 285 0.0 2.6 0.00 0.00 0.00 41 1015.2
20260502213626 49 350 1.7 3.5 0.00 0.00 0.00 42 1015.1
20260502213123 49 169 3.5 3.5 0.00 0.00 0.00 45 1015.3
20260502212621 49 217 1.7 3.5 0.00 0.00 0.00 44 1015.2
20260502212120 48 165 4.3 8.7 0.00 0.00 0.00 46 1015.3
20260502211614 48 191 7.0 8.7 0.00 0.00 0.00 44 1015.1
20260502211111 49 251 4.3 9.6 0.00 0.00 0.00 45 1015.1
20260502210609 49 44 1.7 3.5 0.00 0.00 0.00 44 1015.0
20260502210106 49 172 1.7 6.1 0.00 0.00 0.00 42 1015.1
20260502205603 51 255 2.6 6.1 0.00 0.00 0.00 44 1015.1
20260502205100 49 283 1.7 3.5 0.00 0.00 0.00 40 1015.0
20260502204556 49 285 2.6 7.0 0.00 0.00 0.00 42 1015.0
20260502204054 49 102 0.9 2.6 0.00 0.00 0.00 44 1014.8
20260502203551 49 179 0.0 3.5 0.00 0.00 0.00 46 1015.2
20260502203048 49 239 3.5 5.2 0.00 0.00 0.00 46 1015.3
20260502202543 49 207 2.6 3.5 0.00 0.00 0.00 45 1015.2
20260502202042 49 197 3.5 6.1 0.00 0.00 0.00 46 1015.5
20260502201537 49 245 2.6 6.1 0.00 0.00 0.00 44 1015.4
20260502201034 49 90 1.7 2.6 0.00 0.00 0.00 48 1015.3
20260502200530 49 297 0.9 2.6 0.00 0.00 0.00 43 1015.5
20260502200028 49 227 1.7 6.1 0.00 0.00 0.00 42 1015.4
20260502195525 49 188 0.0 0.9 0.00 0.00 0.00 45 1015.5
20260502195021 49 306 2.6 5.2 0.00 0.00 0.00 44 1015.5
20260502194518 49 189 3.5 7.0 0.00 0.00 0.00 45 1015.6
20260502194014 49 203 3.5 6.1 0.00 0.00 0.00 47 1015.6
20260502193512 48 270 4.3 7.8 0.00 0.00 0.00 45 1015.8
20260502193008 49 249 0.9 3.5 0.00 0.00 0.00 45 1015.6
20260502192504 49 196 2.6 3.5 0.00 0.00 0.00 44 1015.6
20260502192001 49 133 3.5 7.0 0.00 0.00 0.00 46 1015.7
20260502191459 49 210 4.3 9.6 0.00 0.00 0.00 48 1015.8
20260502190956 49 205 2.6 3.5 0.00 0.00 0.00 48 1015.9
20260502190453 49 151 0.9 2.6 0.00 0.00 0.00 42 1015.8
20260502185949 49 125 0.0 2.6 0.00 0.00 0.00 43 1015.9
20260502185445 50 211 4.3 6.1 0.00 0.00 0.00 46 1015.9
20260502184942 50 179 4.3 6.1 0.00 0.00 0.00 45 1016.1
20260502184437 50 336 2.6 7.8 0.00 0.00 0.00 44 1015.8
20260502183934 50 322 0.9 1.7 0.00 0.00 0.00 45 1015.9
20260502183430 51 268 1.7 3.5 0.00 0.00 0.00 46 1016.1
20260502182926 51 5 0.9 1.7 0.00 0.00 0.00 47 1015.9
20260502182421 50 290 2.6 3.5 0.00 0.00 0.00 46 1016.2
20260502181918 51 323 3.5 3.5 0.00 0.00 0.00 44 1015.9
20260502181416 50 50 2.6 2.6 0.00 0.00 0.00 48 1016.3
20260502180914 50 14 1.7 3.5 0.00 0.00 0.00 44 1016.0
20260502180411 50 167 3.5 5.2 0.00 0.00 0.00 49 1016.2
20260502170330 49 237 1.7 8.7 0.00 0.00 0.00 51 1016.4
20260502164318 48 266 1.7 3.5 0.00 0.00 0.00 48 1016.7
20260502163814 47 95 2.6 3.5 0.00 0.00 0.00 48 1016.7
20260502163310 48 210 4.3 5.2 0.00 0.00 0.00 48 1016.7
20260502162808 48 306 0.9 1.7 0.00 0.00 0.00 50 1016.9
20260502162305 47 270 0.0 3.5 0.00 0.00 0.00 51 1016.8
20260502161801 47 226 1.7 2.6 0.00 0.00 0.00 50 1016.7
20260502161257 47 163 0.9 2.6 0.00 0.00 0.00 47 1017.0
20260502160755 47 165 0.9 6.1 0.00 0.00 0.00 48 1016.9
20260502160249 48 242 4.3 6.1 0.00 0.00 0.00 52 1016.8
20260502152217 47 266 0.9 5.2 0.00 0.00 0.00 52 1017.1
20260502151715 47 224 6.1 8.7 0.00 0.00 0.00 51 1017.2
20260502151212 48 224 1.7 2.6 0.00 0.00 0.00 48 1017.0
20260502150709 48 243 3.5 5.2 0.00 0.00 0.00 52 1016.9
20260502150205 48 67 0.0 2.6 0.00 0.00 0.00 51 1016.9
20260502140129 46 255 0.0 2.6 0.00 0.00 0.00 51 1016.8
20260502130554 44 108 0.9 7.8 0.00 0.00 0.00 62 1016.8
20260502123537 42 36 1.7 2.6 0.00 0.00 0.00 68 1016.7
20260502123034 42 21 2.6 7.0 0.00 0.00 0.00 65 1016.4
20260502122530 42 101 0.0 0.9 0.00 0.00 0.00 65 1016.7
20260502122028 42 55 1.7 2.6 0.00 0.00 0.00 66 1016.4
20260502121525 42 268 0.9 1.7 0.00 0.00 0.00 67 1016.4
20260502121022 42 82 3.5 5.2 0.00 0.00 0.00 69 1016.3
20260502120519 41 48 0.0 0.0 0.00 0.00 0.00 77 1016.5
20260502115513 40 272 0.0 0.0 0.00 0.00 0.00 81 1016.4
20260502115009 40 284 0.0 0.0 0.00 0.00 0.00 82 1016.7
20260502114506 40 273 0.0 0.9 0.00 0.00 0.00 82 1016.8
20260502114003 39 71 0.0 1.7 0.00 0.00 0.00 82 1016.7
20260502113500 39 136 0.0 0.0 0.00 0.00 0.00 85 1016.8
20260502112959 39 225 0.0 0.0 0.00 0.00 0.00 85 1016.5
20260502112456 38 221 0.0 0.9 0.00 0.00 0.00 83 1016.7
20260502111953 38 189 0.0 0.9 0.00 0.00 0.00 86 1016.7
20260502111451 39 180 0.0 0.9 0.00 0.00 0.00 85 1016.7
20260502110948 39 205 0.9 0.9 0.00 0.00 0.00 82 1016.8
20260502110446 39 122 0.9 0.9 0.00 0.00 0.00 80 1016.7
20260502105942 38 122 0.9 0.9 0.00 0.00 0.00 83 1016.8
20260502105440 38 253 0.9 0.9 0.00 0.00 0.00 85 1016.5
20260502104938 38 120 0.9 1.7 0.00 0.00 0.00 84 1016.7
20260502104435 38 181 0.9 1.7 0.00 0.00 0.00 86 1017.0
20260502103932 38 110 0.0 0.0 0.00 0.00 0.00 83 1017.0
20260502103430 38 98 0.0 0.0 0.00 0.00 0.00 82 1017.1
20260502102926 38 94 0.0 0.0 0.00 0.00 0.00 81 1017.3
20260502102423 38 120 0.9 0.9 0.00 0.00 0.00 81 1017.0
20260502101920 38 143 0.9 0.9 0.00 0.00 0.00 83 1017.0
20260502101419 39 253 0.9 1.7 0.00 0.00 0.00 79 1017.0
20260502100916 39 114 0.9 1.7 0.00 0.00 0.00 77 1016.9
20260502100411 39 78 1.7 2.6 0.00 0.00 0.00 78 1016.9
20260502091344 41 113 1.7 2.6 0.00 0.00 0.00 75 1017.0
20260502090842 41 75 0.0 0.0 0.00 0.00 0.00 71 1017.0
20260502090338 41 70 0.0 0.0 0.00 0.00 0.00 71 1017.0
20260502071233 40 146 0.9 0.9 0.00 0.00 0.00 82 1016.5
20260502070732 40 124 0.9 0.9 0.00 0.00 0.00 80 1016.7
20260502070229 42 128 0.0 0.9 0.00 0.00 0.00 77 1016.7
20260502065727 42 82 0.9 1.7 0.00 0.00 0.00 73 1016.5
20260502065225 42 123 0.9 0.9 0.00 0.00 0.00 75 1016.7
20260502064723 41 223 0.9 1.7 0.00 0.00 0.00 76 1016.7
20260502064220 42 259 0.9 1.7 0.00 0.00 0.00 75 1017.0
20260502063718 41 245 0.0 1.7 0.00 0.00 0.00 74 1016.7
20260502063216 42 112 0.9 1.7 0.00 0.00 0.00 75 1016.8
20260502062712 42 173 0.0 1.7 0.00 0.00 0.00 72 1016.8
20260502062210 42 183 0.9 1.7 0.00 0.00 0.00 73 1016.8
20260502061709 43 137 0.9 0.9 0.00 0.00 0.00 71 1016.9
20260502061205 43 151 0.9 2.6 0.00 0.00 0.00 70 1017.1
20260502060700 44 167 0.0 0.9 0.00 0.00 0.00 70 1016.9
20260502060157 44 313 0.9 1.7 0.00 0.00 0.00 67 1016.8
20260502055654 44 336 0.0 0.9 0.00 0.00 0.00 70 1016.9
20260502055152 44 166 1.7 7.0 0.00 0.00 0.00 70 1017.0
20260502054651 44 220 3.5 6.1 0.00 0.00 0.00 69 1016.9
20260502054148 44 184 0.9 2.6 0.00 0.00 0.00 68 1016.9
20260502053645 45 153 0.9 5.2 0.00 0.00 0.00 67 1016.9
20260502053142 45 148 3.5 7.0 0.00 0.00 0.00 69 1016.9
20260502052640 45 129 2.6 3.5 0.00 0.00 0.00 67 1016.9
20260502052138 45 156 0.0 3.5 0.00 0.00 0.00 67 1017.1
20260502051636 45 241 1.7 3.5 0.00 0.00 0.00 68 1017.1
20260502051134 46 208 1.7 2.6 0.00 0.00 0.00 69 1016.7
20260502050630 46 45 3.5 7.0 0.00 0.00 0.00 67 1016.7
20260502050127 46 153 0.9 3.5 0.00 0.00 0.00 70 1016.5
20260502045623 46 198 1.7 2.6 0.00 0.00 0.00 70 1016.9
20260502045121 46 203 2.6 7.8 0.00 0.00 0.00 70 1016.8
20260502044617 46 237 0.9 3.5 0.00 0.00 0.00 69 1016.9
20260502044114 46 191 0.9 5.2 0.00 0.00 0.00 73 1016.8
20260502043612 46 268 2.6 7.0 0.00 0.00 0.00 73 1016.7
20260502043108 46 330 0.9 2.6 0.00 0.00 0.00 75 1016.7
20260502042603 45 18 0.0 3.5 0.00 0.00 0.00 76 1016.7
20260502042101 45 123 0.0 0.9 0.00 0.00 0.00 76 1016.7
20260502041558 46 273 0.0 1.7 0.00 0.00 0.00 75 1016.7
20260502041055 47 224 1.7 9.6 0.00 0.00 0.00 70 1016.3
20260502040552 46 103 1.7 1.7 0.00 0.00 0.00 73 1016.3
20260502040049 46 82 1.7 1.7 0.00 0.00 0.00 75 1016.3
20260502035545 46 342 1.7 1.7 0.00 0.00 0.00 73 1016.2
20260502035043 46 65 0.9 2.6 0.00 0.00 0.00 74 1016.7
20260502034540 46 98 0.9 3.5 0.00 0.00 0.00 72 1016.7
20260502034038 47 172 0.0 1.7 0.00 0.00 0.00 72 1016.7
20260502033536 47 309 0.9 3.5 0.00 0.00 0.00 72 1016.4
20260502033033 47 179 5.2 7.0 0.00 0.00 0.00 71 1016.3
20260502032529 47 180 3.5 5.2 0.00 0.00 0.00 71 1016.5
20260502032026 46 114 1.7 3.5 0.00 0.00 0.00 71 1016.4
20260502031524 46 233 1.7 2.6 0.00 0.00 0.00 72 1016.3
20260502031022 46 305 0.0 3.5 0.00 0.00 0.00 72 1016.3
20260502030520 47 199 2.6 5.2 0.00 0.00 0.00 69 1016.4
20260502030017 47 183 5.2 7.0 0.00 0.00 0.00 70 1016.4
20260502025514 47 61 0.9 3.5 0.00 0.00 0.00 73 1016.1
20260502025013 47 241 0.9 1.7 0.00 0.00 0.00 70 1016.5
20260502024509 47 188 2.6 5.2 0.00 0.00 0.00 72 1016.3
20260502024008 47 266 6.1 7.8 0.00 0.00 0.00 73 1016.5
20260502023505 47 109 7.8 8.7 0.00 0.00 0.00 70 1016.4
20260502023002 48 12 0.9 3.5 0.00 0.00 0.00 71 1016.4
20260502022459 48 211 0.9 3.5 0.00 0.00 0.00 70 1016.4
20260502021956 47 195 1.7 2.6 0.00 0.00 0.00 73 1016.7
20260502021454 47 57 1.7 2.6 0.00 0.00 0.00 75 1016.4
20260502020950 47 20 0.0 0.9 0.00 0.00 0.00 77 1016.4
20260502020448 48 29 0.9 1.7 0.00 0.00 0.00 75 1016.2
20260502015944 48 73 0.9 1.7 0.00 0.00 0.00 74 1016.3
20260502015442 48 46 1.7 2.6 0.00 0.00 0.00 75 1016.4
20260502014939 48 22 1.7 1.7 0.00 0.00 0.00 73 1016.3
20260502014436 49 320 4.3 6.1 0.00 0.00 0.00 72 1016.0
20260502013932 49 349 1.7 2.6 0.00 0.00 0.00 73 1016.0
20260502013428 50 96 0.0 1.7 0.00 0.00 0.00 72 1015.9
20260502012924 50 193 6.1 8.7 0.00 0.00 0.00 71 1016.0
20260502012422 50 33 1.7 3.5 0.00 0.00 0.00 73 1015.7
20260502011919 50 345 0.9 2.6 0.00 0.00 0.00 73 1015.7
20260502011415 51 42 3.5 7.8 0.00 0.00 0.00 73 1015.6
20260502010913 51 29 1.7 9.6 0.00 0.00 0.00 71 1015.5
20260502010409 51 242 1.7 2.6 0.00 0.00 0.00 70 1015.4
20260502005906 52 270 0.9 1.7 0.00 0.00 0.00 68 1015.3
20260502005404 53 225 0.9 7.0 0.00 0.00 0.00 64 1015.3
20260502004901 53 189 2.6 3.5 0.00 0.00 0.00 63 1014.8
20260502004357 53 86 3.5 3.5 0.00 0.00 0.00 61 1014.5
20260502003854 52 353 0.0 1.7 0.00 0.00 0.00 64 1014.3
20260502003351 53 45 3.5 3.5 0.00 0.00 0.00 62 1014.3
20260502002848 53 38 4.3 5.2 0.00 0.00 0.00 60 1013.9
20260502002345 53 330 0.0 1.7 0.00 0.00 0.00 59 1014.1
20260502001842 54 21 1.7 2.6 0.00 0.00 0.00 59 1013.8
20260502001340 54 332 3.5 6.1 0.00 0.00 0.00 57 1013.8
20260502000837 54 24 3.5 7.8 0.00 0.00 0.00 56 1013.5
20260502000335 54 39 8.7 8.7 0.00 0.00 0.00 56 1013.6
20260501235831 55 259 1.7 5.2 0.00 0.00 0.00 52 1013.6